This is the latest recevied weather packets stored in our database for station/object KI4NG. If no packets are shown the sender has not sent any weather packets the latest 10 day(s).
| Time | Temp. | Humidity | Pressure | Rain* | Wind** | Luminosity | Snow |
|---|---|---|---|---|---|---|---|
| 1777862858 | 10° C | 68% | 1017.2 hPa | 0 mm | - | 0 W/m² | - |
| 1777862555 | 10° C | 73% | 1017.2 hPa | 0 mm | - | 0 W/m² | - |
| 1777862252 | 10° C | 71% | 1016.9 hPa | 0 mm | - | 0 W/m² | - |
| 1777861948 | 10° C | 67% | 1017 hPa | 0 mm | - | 0 W/m² | - |
| 1777861644 | 10° C | 67% | 1017.2 hPa | 0 mm | - | 0 W/m² | - |
| 1777861340 | 10° C | 70% | 1017 hPa | 0 mm | - | 0 W/m² | - |
| 1777861038 | 10.56° C | 65% | 1016.9 hPa | 0 mm | - | 0 W/m² | - |
| 1777860735 | 10.56° C | 67% | 1017.1 hPa | 0 mm | - | 0 W/m² | - |
| 1777860432 | 11.11° C | 61% | 1017 hPa | 0 mm | - | 0 W/m² | - |
| 1777860128 | 11.67° C | 60% | 1017.1 hPa | 0 mm | - | 0 W/m² | - |
| 1777859825 | 11.67° C | 60% | 1017 hPa | 0 mm | - | 0 W/m² | - |
| 1777859521 | 11.67° C | 58% | 1016.7 hPa | 0 mm | - | 0 W/m² | - |
| 1777859216 | 11.67° C | 61% | 1016.9 hPa | 0 mm | - | 0 W/m² | - |
| 1777858914 | 11.67° C | 57% | 1017 hPa | 0 mm | - | 0 W/m² | - |
| 1777858612 | 11.67° C | 58% | 1017.1 hPa | 0 mm | - | 0 W/m² | - |
| 1777858308 | 11.67° C | 59% | 1016.9 hPa | 0 mm | - | 0 W/m² | - |
| 1777858005 | 12.22° C | 57% | 1016.5 hPa | 0 mm | - | 0 W/m² | - |
| 1777857703 | 11.67° C | 57% | 1016.6 hPa | 0 mm | - | 0 W/m² | - |
| 1777857400 | 12.22° C | 58% | 1016.6 hPa | 0 mm | - | 0 W/m² | - |
| 1777857096 | 12.22° C | 58% | 1016.6 hPa | 0 mm | - | 0 W/m² | - |
| 1777856792 | 12.22° C | 55% | 1016.6 hPa | 0 mm | - | 0 W/m² | - |
| 1777856488 | 12.22° C | 55% | 1016.6 hPa | 0 mm | - | 0 W/m² | - |
| 1777856185 | 12.22° C | 57% | 1016.6 hPa | 0 mm | - | 0 W/m² | - |
| 1777855882 | 12.22° C | 56% | 1016.5 hPa | 0 mm | - | 0 W/m² | - |
| 1777855580 | 12.22° C | 57% | 1016.7 hPa | 0 mm | - | 0 W/m² | - |
* Rain latest hour (hover to see other rain measurements)
** Current wind speed in m/s (hover to see current wind gust speed)